Wind_Speed
3 2 3 2 3 3 4 5 5 6 7 8 9 10 10 10 11 11 11 11 11 11 11 10 9 9 9 9 9 9 9 8 8 8 8 8 8 8 7 7 7 6 6
4 4 3 3 4 4 6 6 7 8 8 9 10 10 11 11 12 12 12 12 12 12 12 11 11 10 10 10 10 10 10 10 10 10 9 9 9 9 9 8 8 7 7
5 4 4 4 5 5 6 7 8 8 9 11 12 12 12 13 13 13 13 13 13 13 12 12 12 12 11 11 12 12 12 11 11 11 11 11 10 10 10 10 9 9 9
6 6 5 6 7 7 7 8 9 10 11 12 12 13 13 14 14 13 13 14 14 13 13 13 13 13 13 13 13 13 13 13 13 13 12 12 12 11 11 11 11 11 11
7 7 7 7 8 8 9 10 10 12 12 13 13 13 14 14 14 14 14 14 15 14 14 14 14 14 14 14 14 14 15 15 15 14 14 14 13 13 13 13 13 13 13
9 9 9 9 9 10 11 12 13 13 14 14 14 14 15 16 16 15 15 15 16 15 16 16 15 15 15 15 15 15 16 16 16 16 15 15 15 15 15 15 15 15 14
11 11 11 11 11 11 12 12 14 14 15 15 15 16 16 16 16 16 16 17 16 16 16 17 16 16 16 16 16 16 17 16 16 16 16 16 16 16 17 17 16 16 15
11 12 12 13 12 12 13 13 14 15 16 16 17 16 16 16 17 18 18 18 18 18 18 18 18 18 18 18 18 18 18 18 17 17 17 18 17 17 18 18 17 17 16
12 13 14 13 13 13 14 15 16 16 17 17 17 17 17 18 18 18 19 20 19 19 19 19 19 19 19 19 19 19 19 19 19 19 19 19 19 19 19 20 20 18 18
13 14 14 14 14 15 15 16 17 18 18 18 18 19 19 19 19 19 20 20 20 20 20 20 20 20 20 19 20 21 21 20 20 20 20 20 21 21 21 21 20 20 20
14 14 14 15 16 16 17 18 18 19 19 19 19 19 20 20 20 20 21 21 21 21 20 21 21 21 21 21 20 21 22 22 22 22 22 22 22 23 22 22 22 22 21
14 14 15 16 17 17 18 19 19 19 19 20 20 20 20 20 20 20 21 22 22 21 21 22 21 22 22 22 22 23 23 24 24 24 24 24 24 24 24 24 23 23 22
16 16 17 17 18 18 19 19 20 20 20 20 21 20 20 21 20 21 22 22 22 22 22 22 23 23 23 23 24 24 24 24 25 26 25 25 25 25 24 24 25 24 24
17 18 18 18 19 19 20 20 20 21 20 21 21 21 20 21 21 22 23 23 23 22 22 23 24 24 24 24 24 25 25 26 26 27 27 26 26 26 26 25 25 25 25
17 18 19 19 20 21 21 21 21 22 22 22 21 21 21 22 22 22 23 23 23 23 23 23 24 24 24 25 25 25 25 27 27 28 28 27 27 27 27 26 26 26 26
16 18 19 20 21 21 21 20 20 21 22 22 22 22 22 22 23 23 23 24 24 24 24 24 25 25 25 25 26 26 26 27 28 28 28 28 28 28 28 28 28 27 27
17 18 19 20 21 21 21 20 21 21 21 22 22 22 23 23 23 23 23 24 24 24 24 25 26 26 26 26 27 27 27 27 28 28 28 29 28 28 28 28 29 29 28
19 19 20 19 20 21 21 21 21 21 21 22 22 23 23 23 24 24 24 24 24 24 25 25 26 27 27 28 28 28 28 28 28 28 28 28 29 29 28 28 28 29 29
19 20 20 20 22 21 21 22 22 22 22 22 22 23 23 24 24 24 25 25 25 25 26 26 26 27 28 28 28 29 29 28 28 29 28 29 29 29 29 29 29 28 28
19 20 21 21 21 20 20 21 22 22 22 22 23 23 24 25 25 25 26 26 26 26 26 26 27 27 27 28 28 29 29 28 28 27 27 27 28 28 29 29 29 28 28
20 21 22 22 21 20 21 21 21 21 21 22 23 24 25 26 26 26 27 27 27 27 27 27 26 27 27 28 28 27 27 27 27 27 27 27 27 27 27 27 27 27 28
22 22 22 20 20 21 21 20 20 21 22 24 24 25 25 26 27 27 28 28 27 27 27 26 26 27 26 27 26 26 26 26 27 27 27 27 27 27 26 26 27 27 28
20 20 20 20 21 20 20 20 21 22 23 24 24 25 25 27 27 27 27 27 27 26 26 26 26 26 26 26 26 26 26 25 25 26 27 27 27 26 26 26 26 26 27
19 19 19 20 19 20 20 21 22 23 24 24 24 25 25 25 25 26 26 26 26 25 25 26 26 26 25 25 25 25 25 25 24 24 25 25 25 25 26 25 25 26 27
18 19 20 19 19 20 21 21 22 23 24 24 24 25 25 25 25 25 25 25 25 25 25 26 25 25 24 24 24 24 24 24 24 23 23 24 25 25 25 25 25 26 26
18 18 18 19 19 19 20 21 22 23 23 23 24 25 26 26 26 26 26 24 24 24 24 25 24 24 23 23 23 23 23 23 24 23 22 23 24 25 25 25 26 26 27
Wind_Direction
320 308 290 288 293 300 304 306 307 308 308 307 304 302 302 302 302 302 302 301 298 295 292 288 285 281 278 277 274 273 273 271 269 265 262 262 264 262 258 256 254 251 250
310 313 309 306 303 304 301 301 304 306 306 306 304 302 301 300 300 300 299 297 296 293 290 286 284 281 279 277 274 273 274 273 270 269 267 266 265 265 264 260 256 253 251
307 313 312 313 307 305 302 301 301 301 301 301 300 301 299 298 297 296 295 294 292 291 288 285 283 281 279 277 275 273 273 273 273 271 270 269 268 267 267 263 260 256 251
301 302 306 307 305 301 298 299 299 299 301 302 301 300 300 299 294 293 293 291 289 288 286 284 282 281 280 278 277 276 274 273 273 273 271 269 268 266 265 263 261 258 254
292 294 300 302 302 301 296 295 296 297 299 299 298 297 298 298 293 290 290 288 288 287 285 284 282 281 280 278 277 278 276 275 274 273 272 271 268 267 265 263 260 258 256
292 295 298 300 300 299 297 294 294 295 296 296 297 296 295 295 292 288 288 287 286 286 284 281 280 280 279 278 277 277 276 275 273 272 270 269 271 269 265 261 259 258 256
298 299 297 296 297 298 297 297 296 297 298 297 295 295 294 293 291 289 289 287 286 286 284 282 279 279 279 279 277 276 275 274 272 271 270 269 270 267 264 261 258 257 259
295 297 294 294 293 296 297 297 299 299 299 296 293 293 294 293 289 288 287 286 286 284 283 282 279 278 278 277 276 274 273 273 272 270 269 268 269 267 261 261 260 259 258
287 288 289 290 290 293 297 298 301 300 298 296 294 293 294 293 290 288 288 288 285 282 281 280 279 277 276 276 275 273 272 272 270 268 268 268 268 267 263 262 261 260 260
287 286 287 286 291 295 296 297 297 297 296 295 294 295 293 291 288 288 290 291 286 283 282 279 278 278 278 274 272 271 271 270 270 269 267 268 268 267 266 264 261 260 260
287 287 287 286 289 292 296 296 296 295 295 294 294 295 294 291 289 289 290 290 288 285 283 280 280 279 277 275 273 272 272 270 270 270 269 267 266 265 265 265 264 263 262
286 287 287 286 288 290 291 293 293 293 293 292 293 293 292 292 290 289 289 288 285 283 283 280 281 280 277 276 274 273 272 270 271 271 270 268 268 265 264 265 266 265 262
285 286 285 286 287 288 290 290 290 291 292 292 293 293 293 293 291 289 288 287 285 283 281 278 279 278 278 277 275 274 273 272 272 273 270 269 267 265 265 265 265 266 262
283 285 285 286 288 290 290 291 290 291 292 293 293 294 294 292 291 290 290 288 287 285 283 280 280 280 280 279 278 275 274 273 273 272 269 268 267 266 265 265 263 264 263
282 284 286 287 288 291 291 290 291 292 292 292 292 293 292 291 291 291 290 289 287 286 285 282 281 281 282 282 280 278 276 274 273 271 269 267 267 266 264 263 262 261 260
283 285 286 286 287 289 289 290 291 291 292 291 290 290 291 291 291 290 290 289 287 285 284 283 284 283 281 283 282 280 278 275 272 270 267 266 265 265 265 263 262 260 260
285 285 287 287 287 288 288 293 294 291 291 291 291 291 291 292 292 291 291 290 288 285 284 284 284 283 281 281 280 279 279 276 272 270 268 266 265 267 266 265 262 261 260
289 285 287 287 287 288 290 293 295 293 293 293 292 293 292 293 293 291 292 292 291 287 284 285 285 284 283 282 280 278 277 275 272 270 268 266 266 267 266 266 263 261 259
289 289 289 290 290 289 290 293 296 295 295 295 296 296 294 293 293 292 293 293 292 291 289 288 288 287 285 283 281 279 277 276 274 271 268 267 267 266 266 265 264 261 260
291 292 292 293 291 289 289 292 294 295 296 297 297 297 295 293 292 292 292 293 293 293 293 292 291 289 287 284 282 281 278 276 276 272 270 268 268 266 266 265 264 261 260
296 297 293 291 291 288 291 291 293 296 297 296 296 296 295 293 293 292 292 292 293 293 294 294 292 291 289 287 284 281 280 277 275 273 271 269 268 267 266 265 263 261 258
293 294 292 291 292 289 290 293 294 297 298 299 298 297 296 296 296 294 292 293 293 293 293 294 293 293 291 288 285 282 280 279 276 274 271 269 268 266 265 265 264 262 260
293 292 293 294 295 294 293 294 296 297 299 301 300 301 300 298 297 297 295 294 293 293 293 293 295 294 293 290 287 284 281 278 277 276 272 268 267 267 266 266 266 264 262
294 292 290 293 292 293 294 295 296 297 300 302 301 302 302 302 299 298 299 298 295 295 295 294 294 294 293 292 291 287 285 280 278 275 273 269 268 267 266 265 264 264 263
293 293 291 291 293 294 294 296 296 297 301 303 304 304 304 304 301 300 301 299 298 297 296 296 296 295 292 292 292 290 286 283 280 277 274 272 269 267 268 267 265 264 263
293 293 293 293 295 295 294 296 296 298 302 304 306 306 306 305 303 304 303 299 298 298 298 297 295 294 294 295 294 292 289 285 283 280 277 272 269 268 269 269 267 266 266
Height
5905 5905 5904 5904 5904 5903 5903 5903 5902 5902 5901 5901 5900 5899 5898 5897 5896 5895 5894 5893 5892 5891 5890 5889 5888 5887 5886 5885 5884 5883 5882 5881 5881 5880 5880 5879 5879 5878 5877 5877 5876 5876 5876
5905 5904 5904 5903 5903 5903 5902 5902 5901 5901 5900 5900 5899 5898 5897 5896 5894 5893 5892 5891 5890 5889 5888 5887 5886 5885 5884 5883 5883 5882 5881 5880 5879 5879 5878 5877 5877 5876 5876 5875 5875 5874 5874
5904 5903 5903 5903 5902 5902 5901 5901 5900 5900 5899 5898 5897 5896 5895 5894 5893 5892 5891 5889 5888 5887 5886 5885 5884 5883 5882 5881 5880 5879 5878 5877 5877 5876 5876 5875 5875 5874 5874 5874 5873 5873 5872
5903 5902 5902 5902 5901 5900 5900 5899 5899 5898 5897 5896 5895 5894 5893 5892 5891 5890 5889 5888 5886 5885 5884 5883 5882 5881 5880 5879 5878 5877 5876 5875 5874 5874 5873 5873 5872 5872 5872 5871 5871 5871 5870
5902 5901 5901 5900 5900 5899 5899 5898 5897 5896 5895 5894 5893 5892 5891 5890 5889 5887 5886 5885 5884 5883 5882 5881 5880 5878 5877 5877 5876 5875 5873 5872 5872 5871 5870 5870 5869 5869 5869 5869 5869 5869 5869
5900 5900 5899 5899 5898 5897 5897 5896 5895 5894 5893 5891 5890 5889 5888 5887 5886 5885 5884 5883 5882 5881 5879 5878 5877 5876 5875 5874 5873 5872 5871 5870 5869 5868 5868 5867 5867 5867 5866 5866 5866 5866 5866
5898 5898 5897 5897 5896 5896 5895 5894 5893 5891 5890 5889 5888 5886 5885 5884 5883 5882 5881 5880 5879 5878 5877 5875 5874 5873 5872 5871 5870 5869 5868 5867 5866 5866 5865 5865 5864 5864 5863 5863 5863 5863 5863
5896 5896 5895 5895 5894 5893 5892 5891 5890 5889 5887 5886 5885 5883 5882 5881 5880 5879 5878 5877 5876 5875 5873 5872 5871 5869 5868 5867 5866 5865 5864 5863 5863 5862 5862 5861 5860 5860 5860 5859 5859 5859 5859
5894 5894 5893 5892 5892 5891 5889 5888 5887 5886 5885 5883 5882 5880 5879 5878 5876 5875 5874 5873 5872 5871 5869 5868 5867 5865 5864 5863 5862 5861 5860 5859 5859 5858 5858 5858 5857 5856 5856 5855 5856 5855 5856
5891 5891 5890 5890 5889 5888 5886 5885 5884 5883 5881 5880 5878 5877 5875 5874 5873 5871 5870 5869 5868 5866 5865 5864 5863 5861 5860 5858 5857 5856 5855 5855 5854 5854 5853 5853 5852 5852 5851 5851 5851 5851 5851
5889 5888 5887 5886 5885 5884 5883 5881 5880 5879 5877 5876 5874 5873 5871 5870 5868 5867 5866 5864 5863 5862 5860 5859 5858 5856 5855 5854 5853 5852 5850 5850 5849 5848 5848 5848 5847 5847 5847 5846 5846 5846 5846
5886 5885 5884 5883 5882 5880 5879 5878 5876 5875 5873 5872 5870 5869 5867 5866 5864 5863 5861 5860 5858 5857 5856 5854 5853 5851 5850 5848 5847 5846 5845 5844 5844 5843 5843 5842 5842 5841 5841 5841 5841 5841 5841
5882 5882 5881 5880 5878 5877 5875 5874 5872 5871 5869 5868 5866 5864 5863 5861 5860 5858 5856 5855 5853 5852 5850 5849 5847 5846 5844 5843 5842 5841 5839 5838 5838 5837 5837 5836 5836 5835 5835 5835 5835 5835 5835
5879 5878 5877 5875 5874 5872 5871 5869 5868 5866 5865 5863 5861 5859 5858 5856 5855 5853 5851 5849 5848 5846 5845 5843 5841 5840 5838 5837 5836 5834 5833 5832 5831 5831 5830 5830 5830 5829 5829 5829 5829 5829 5830
5875 5874 5873 5871 5870 5868 5866 5865 5863 5862 5860 5858 5856 5855 5853 5851 5850 5848 5846 5844 5842 5840 5839 5837 5835 5834 5832 5831 5829 5828 5827 5826 5825 5824 5823 5823 5823 5823 5822 5822 5822 5823 5823
5870 5870 5868 5867 5865 5864 5862 5861 5859 5856 5855 5853 5851 5850 5848 5846 5844 5842 5840 5838 5836 5834 5832 5831 5829 5828 5826 5824 5823 5821 5820 5818 5817 5816 5816 5816 5816 5816 5815 5815 5815 5816 5816
5866 5865 5864 5862 5860 5859 5858 5856 5854 5852 5850 5848 5846 5844 5842 5840 5838 5836 5834 5832 5830 5828 5826 5824 5823 5821 5819 5818 5816 5814 5813 5811 5810 5809 5808 5808 5808 5808 5808 5808 5808 5808 5809
5861 5860 5859 5857 5855 5854 5853 5850 5848 5847 5845 5843 5840 5838 5836 5834 5832 5830 5828 5826 5824 5822 5820 5818 5816 5814 5812 5810 5808 5806 5805 5804 5802 5801 5801 5800 5800 5800 5800 5800 5800 5800 5801
5856 5855 5854 5852 5850 5849 5847 5845 5844 5841 5839 5837 5835 5833 5830 5828 5826 5823 5822 5820 5818 5816 5813 5811 5809 5807 5805 5803 5800 5799 5797 5796 5794 5793 5793 5793 5792 5792 5792 5792 5792 5792 5793
5852 5850 5849 5847 5845 5843 5842 5840 5839 5837 5834 5832 5829 5827 5825 5823 5820 5818 5816 5813 5811 5809 5807 5804 5802 5799 5797 5795 5793 5791 5789 5787 5786 5785 5785 5784 5784 5784 5784 5784 5784 5785 5785
5848 5846 5845 5843 5841 5839 5838 5836 5834 5832 5830 5827 5825 5822 5819 5817 5814 5812 5809 5807 5805 5802 5800 5797 5795 5793 5790 5788 5785 5784 5782 5780 5779 5778 5777 5777 5777 5776 5776 5776 5776 5776 5777
5843 5841 5839 5838 5836 5835 5833 5832 5830 5828 5825 5822 5820 5817 5814 5811 5808 5806 5803 5801 5798 5795 5793 5790 5788 5786 5783 5780 5778 5776 5775 5774 5772 5771 5770 5769 5769 5769 5769 5769 5769 5769 5769
5838 5836 5835 5833 5831 5830 5829 5827 5825 5823 5820 5817 5814 5811 5808 5805 5802 5799 5797 5794 5791 5789 5786 5784 5781 5779 5776 5773 5771 5769 5768 5766 5765 5763 5762 5761 5761 5761 5761 5761 5761 5761 5762
5833 5832 5830 5829 5828 5826 5824 5822 5820 5818 5815 5812 5809 5806 5802 5799 5796 5793 5790 5787 5785 5782 5780 5777 5775 5772 5769 5766 5764 5762 5760 5758 5757 5756 5755 5754 5754 5754 5754 5754 5754 5754 5754
5828 5827 5825 5824 5823 5821 5819 5817 5815 5812 5810 5806 5803 5800 5797 5793 5790 5787 5784 5781 5779 5776 5773 5771 5768 5765 5762 5760 5757 5755 5753 5751 5750 5749 5748 5748 5747 5747 5747 5747 5746 5747 5747
5824 5822 5820 5819 5817 5815 5814 5812 5809 5807 5804 5801 5797 5794 5791 5787 5784 5781 5778 5775 5772 5770 5767 5764 5761 5758 5756 5753 5751 5748 5746 5745 5743 5742 5741 5741 5740 5740 5739 5739 5739 5739 5739